カタログに戻る

THOR ABLESTAR DEB

運用中PO
NORAD 1099·DEBRIS·🇺🇸 United States

打ち上げ Dec 13, 1964 から Vandenberg Space Force Base

Loading…

次のパス (今後24時間)

TLE

最新Source: Space-Track

元期: Sep 14, 2026, 15:17 UTC

1 01099U 64083G   26257.63685419  .00000148  00000-0  17604-3 0  9998
2 01099  89.8035 136.2515 0040057  22.0551   6.1572 13.62867324994597

AllMySatでTHOR ABLESTAR DEBをリアルタイム追跡

Download on the App Store